| time (UTC) | temp F | wind direction | speed MPH | gust MPH | rain 1hr in | rain 24hr in | rain mn in | humidity % | barometer mb |
| 20260504045951 | 43 | 270 | 0.0 | 0.0 | 0.00 | 0.00 | 0.00 | 100 | 1012.7 |
| 20260504044953 | 44 | 270 | 0.0 | 0.0 | 0.00 | 0.00 | 0.00 | 100 | 1012.9 |
| 20260504043951 | 44 | 270 | 0.0 | 1.0 | 0.00 | 0.00 | 0.00 | 100 | 1013.0 |
| 20260504042953 | 44 | 247 | 1.0 | 2.0 | 0.00 | 0.00 | 0.00 | 100 | 1012.9 |
| 20260504041954 | 44 | 247 | 2.0 | 2.0 | 0.00 | 0.00 | 0.00 | 100 | 1012.9 |
| 20260504040953 | 44 | 233 | 4.0 | 6.0 | 0.00 | 0.00 | 0.00 | 100 | 1013.2 |
| 20260504035956 | 44 | 247 | 3.0 | 5.0 | 0.00 | 0.00 | 0.00 | 100 | 1013.3 |
| 20260504034959 | 43 | 247 | 1.0 | 1.0 | 0.00 | 0.00 | 0.00 | 100 | 1013.4 |
| 20260504034056 | 43 | 247 | 0.0 | 1.0 | 0.00 | 0.00 | 0.00 | 100 | 1013.4 |
| 20260504033057 | 42 | 247 | 0.0 | 0.0 | 0.00 | 0.00 | 0.00 | 100 | 1013.2 |
| 20260504031155 | 42 | 247 | 0.0 | 0.0 | 0.00 | 0.00 | 0.00 | 100 | 1012.8 |
| 20260504031058 | 42 | 247 | 0.0 | 0.0 | 0.00 | 0.00 | 0.00 | 100 | 1012.8 |
| 20260504030056 | 41 | 247 | 0.0 | 0.0 | 0.00 | 0.00 | 0.00 | 100 | 1012.7 |
| 20260504025058 | 41 | 247 | 0.0 | 0.0 | 0.00 | 0.00 | 0.00 | 100 | 1012.7 |
| 20260504024157 | 40 | 247 | 0.0 | 0.0 | 0.00 | 0.00 | 0.00 | 100 | 1012.7 |
| 20260504023156 | 42 | 247 | 0.0 | 0.0 | 0.00 | 0.00 | 0.00 | 100 | 1012.7 |
| 20260504022158 | 43 | 247 | 0.0 | 0.0 | 0.00 | 0.00 | 0.00 | 100 | 1012.8 |
| 20260504021256 | 44 | 247 | 0.0 | 0.0 | 0.00 | 0.00 | 0.00 | 100 | 1012.7 |
| 20260504020258 | 44 | 270 | 0.0 | 1.0 | 0.00 | 0.00 | 0.00 | 100 | 1012.8 |
| 20260504015357 | 45 | 270 | 0.0 | 0.0 | 0.00 | 0.00 | 0.00 | 100 | 1012.8 |
| 20260504014455 | 46 | 270 | 3.0 | 3.0 | 0.00 | 0.00 | 0.00 | 100 | 1012.8 |
| 20260504012455 | 47 | 270 | 1.0 | 1.0 | 0.00 | 0.00 | 0.00 | 100 | 1012.9 |
| 20260504010456 | 47 | 180 | 2.0 | 2.0 | 0.00 | 0.00 | 0.00 | 100 | 1012.8 |
| 20260504004457 | 47 | 270 | 2.0 | 2.0 | 0.00 | 0.00 | 0.00 | 100 | 1012.7 |
| 20260504003556 | 48 | 270 | 4.0 | 6.0 | 0.00 | 0.00 | 0.00 | 100 | 1012.7 |
| 20260504002555 | 48 | 247 | 7.0 | 13.0 | 0.00 | 0.00 | 0.00 | 100 | 1012.5 |
| 20260504001558 | 48 | 265 | 7.0 | 14.0 | 0.00 | 0.00 | 0.00 | 100 | 1012.5 |
| 20260504000558 | 48 | 270 | 2.0 | 3.0 | 0.00 | 0.00 | 0.00 | 100 | 1012.4 |
| 20260503235555 | 48 | 259 | 5.0 | 7.0 | 0.00 | 0.00 | 0.00 | 100 | 1012.4 |
| 20260503231558 | 50 | 270 | 6.0 | 8.0 | 0.00 | 0.00 | 0.00 | 100 | 1012.0 |
| 20260503230656 | 51 | 267 | 11.0 | 16.0 | 0.00 | 0.00 | 0.00 | 100 | 1011.8 |
| 20260503225658 | 51 | 266 | 9.0 | 12.0 | 0.00 | 0.00 | 0.00 | 100 | 1011.8 |
| 20260503224657 | 52 | 249 | 6.0 | 10.0 | 0.00 | 0.00 | 0.00 | 100 | 1011.8 |
| 20260503223654 | 52 | 257 | 8.0 | 12.0 | 0.00 | 0.00 | 0.00 | 100 | 1011.8 |
| 20260503222657 | 52 | 259 | 7.0 | 14.0 | 0.00 | 0.00 | 0.00 | 100 | 1011.6 |
| 20260503215656 | 53 | 254 | 8.0 | 15.0 | 0.00 | 0.00 | 0.00 | 100 | 1011.5 |
| 20260503215558 | 53 | 254 | 11.0 | 20.0 | 0.00 | 0.00 | 0.00 | 100 | 1011.6 |
| 20260503213556 | 53 | 268 | 8.0 | 18.0 | 0.00 | 0.00 | 0.00 | 100 | 1011.5 |
| 20260503211557 | 53 | 244 | 9.0 | 20.0 | 0.00 | 0.00 | 0.00 | 100 | 1011.5 |
| 20260503210557 | 53 | 242 | 10.0 | 14.0 | 0.00 | 0.00 | 0.00 | 100 | 1011.5 |
| 20260503204556 | 52 | 262 | 14.0 | 22.0 | 0.00 | 0.00 | 0.00 | 100 | 1011.6 |
| 20260503203556 | 52 | 244 | 8.0 | 14.0 | 0.00 | 0.00 | 0.00 | 100 | 1011.7 |
| 20260503202656 | 52 | 260 | 6.0 | 10.0 | 0.00 | 0.00 | 0.00 | 100 | 1011.7 |
| 20260503200756 | 51 | 197 | 4.0 | 11.0 | 0.00 | 0.00 | 0.00 | 100 | 1011.7 |
| 20260503195855 | 52 | 262 | 9.0 | 14.0 | 0.00 | 0.00 | 0.00 | 100 | 1011.8 |
| 20260503194854 | 51 | 215 | 8.0 | 13.0 | 0.00 | 0.00 | 0.00 | 100 | 1011.9 |
| 20260503194755 | 51 | 249 | 7.0 | 12.0 | 0.00 | 0.00 | 0.00 | 100 | 1011.9 |
| 20260503193755 | 50 | 243 | 4.0 | 9.0 | 0.00 | 0.00 | 0.00 | 100 | 1012.1 |
| 20260503190854 | 50 | 267 | 5.0 | 9.0 | 0.00 | 0.00 | 0.00 | 100 | 1012.6 |
| 20260503185856 | 51 | 265 | 9.0 | 14.0 | 0.00 | 0.00 | 0.00 | 100 | 1012.7 |
| 20260503184856 | 50 | 266 | 6.0 | 9.0 | 0.00 | 0.00 | 0.00 | 100 | 1012.7 |
| 20260503183955 | 49 | 233 | 5.0 | 8.0 | 0.00 | 0.00 | 0.00 | 100 | 1012.8 |
| 20260503182955 | 50 | 241 | 7.0 | 10.0 | 0.00 | 0.00 | 0.00 | 100 | 1013.0 |
| 20260503181957 | 48 | 266 | 6.0 | 9.0 | 0.00 | 0.00 | 0.00 | 100 | 1013.0 |
| 20260503181055 | 48 | 241 | 7.0 | 11.0 | 0.00 | 0.00 | 0.00 | 100 | 1013.0 |
| 20260503180056 | 48 | 256 | 6.0 | 11.0 | 0.00 | 0.00 | 0.00 | 100 | 1013.0 |
| 20260503175056 | 48 | 256 | 4.0 | 7.0 | 0.00 | 0.00 | 0.00 | 100 | 1013.1 |
| 20260503174155 | 47 | 208 | 6.0 | 9.0 | 0.00 | 0.00 | 0.00 | 100 | 1013.2 |
| 20260503173155 | 47 | 253 | 6.0 | 13.0 | 0.00 | 0.00 | 0.00 | 100 | 1013.3 |
| 20260503172154 | 47 | 251 | 6.0 | 11.0 | 0.00 | 0.00 | 0.00 | 100 | 1013.3 |
| 20260503170254 | 46 | 243 | 6.0 | 11.0 | 0.00 | 0.00 | 0.00 | 100 | 1013.4 |
| 20260503150255 | 43 | 263 | 5.0 | 8.0 | 0.00 | 0.00 | 0.00 | 100 | 1013.7 |
| 20260503140255 | 44 | 264 | 7.0 | 11.0 | 0.00 | 0.01 | 0.00 | 100 | 1013.9 |
| 20260503130355 | 42 | 243 | 4.0 | 8.0 | 0.00 | 0.01 | 0.00 | 100 | 1014.2 |
| 20260503110552 | 37 | 268 | 3.0 | 6.0 | 0.00 | 0.01 | 0.00 | 100 | 1013.4 |
| 20260503081052 | 35 | 270 | 2.0 | 3.0 | 0.00 | 0.02 | 0.00 | 100 | 1013.1 |
| 20260503072153 | 34 | 252 | 1.0 | 2.0 | 0.00 | 0.02 | 0.00 | 100 | 1013.3 |
| 20260503071153 | 34 | 247 | 2.0 | 4.0 | 0.00 | 0.02 | 0.00 | 100 | 1013.3 |
| 20260503070153 | 34 | 259 | 2.0 | 3.0 | 0.00 | 0.02 | 0.00 | 100 | 1013.4 |